Regional Weather Roundup
Issued by NWS

Home | Current Version | Previous Version | Text Only | Print | Product List | Glossary Off
Versions: 1 2 3 4 5 6 7 8 9 10 11 12 13 14 15 16 17 18 19 20 21 22 23 24 25 26 27 28 29 30 31 32 33 34 35 36 37 38 39 40 41 42 43 44 45 46 47 48 49 50

620
ASUS44 KJAN 291910
RWRMS

MISSISSIPPI HOURLY WEATHER ROUNDUP
NATIONAL WEATHER SERVICE JACKSON MS
200 PM CDT FRI AUG 29 2014

NOTE: "FAIR: INDICATES FEW OR NO CLOUDS BELOW 12,000 FEET WITH NO
SIGNIFICANT WEATHER AND/OR OBSTRUCTIONS TO VISIBILITY.

MSZ001>002-007>008-010>013-018>021-025>028-034>036-292000-
NORTHWEST MISSISSIPPI

CITY           SKY/WX    TMP DP  RH WIND       PRES   REMARKS
CLARKSDALE     FAIR      91  73  55 SE5       29.96F HX 100
CLEVELAND      CLOUDY    89  73  59 SE8       29.94F HX  96
GREENWOOD      SUNNY     92  71  50 SE13      29.97F HX  98
GREENVILLE     PTSUNNY   90  71  53 S8        29.94F HX  96
GRENADA        FAIR      91  68  46 SE7       29.98F HX  95
OLIVE BRANCH   MOSUNNY   91  68  46 S12       29.97F HX  95
OXFORD         FAIR      90  64  43 S3        30.01F HX  91
TUNICA         CLEAR     91  68  46 S3        29.96F HX  95
$$

MSZ003>006-009-014>017-022>024-029>033-037>039-292000-
NORTHEAST MISSISSIPPI

CITY           SKY/WX    TMP DP  RH WIND       PRES   REMARKS
BELMONT        FAIR      89  64  44 SW7       30.02F HX  90
COLUMBUS AFB   MOSUNNY   93  60  33 SE10G18   30.00F HX  92
CORINTH        FAIR      90  68  48 VRB6      30.00F HX  93
GOLDN TRIANGLE MOSUNNY   93  63  36 S9        30.01F HX  94
STARKVILLE     MOCLDY    90  59  35 E7        30.00F
TUPELO         MOSUNNY   94  60  32 S12G17    30.00F HX  94
$$

MSZ040-058-292000-
CENTRAL MISSISSIPPI

CITY           SKY/WX    TMP DP  RH WIND       PRES   REMARKS
JACKSON INTL   PTSUNNY   92  66  42 SE7       29.99R HX  94
JACKSON HAWKNS MOSUNNY   91  66  43 SE10      30.00R HX  93
MERIDIAN KEY   MOSUNNY   93  61  34 S9        29.99F HX  93
MERIDIAN NAS   PTSUNNY   94  64  37 VRB3      30.00F HX  95
RAYMOND        FAIR      91  86  84 SE7       29.98F HX 122
VICKSBURG      MOSUNNY   93  69  45 S10       29.98R HX  98
$$

MSZ059>079-292000-
SOUTH MISSISSIPPI

CITY           SKY/WX    TMP DP  RH WIND       PRES   REMARKS
BROOKHAVEN     FAIR      90  70  51 SE7       30.01F HX  95
COLUMBIA       FAIR      91  72  52 SW6       29.96F HX  98
HATTIESBURG    PTSUNNY   91  69  48 SE6       29.98F HX  96
MCCOMB         CLOUDY    88  69  53 S8        29.99F HX  92
NATCHEZ        PTSUNNY   90  72  55 S10       29.98F HX  96
PINE BELT      PTSUNNY   91  66  43 SE7       30.00F HX  94
$$

MSZ080>082-292000-
COASTAL MISSISSIPPI

CITY           SKY/WX    TMP DP  RH WIND       PRES   REMARKS
BAY ST LOUIS   PTSUNNY  N/A N/A N/A SE7       29.97
BILOXI         CLOUDY    88  75  65 SE18G25   29.98S HX  97
PASCAGOULA     CLOUDY    87  76  69 SE15G25   29.98F HX  97
GULFPORT       CLOUDY    87  75  67 E16       29.97S HX  96
$$



USA.gov is the U.S. government's official web portal to all federal, state and local government web resources and services.